Location: Lake Almanor
(40.2485°N, 121.1442°W)
Time: 10:50:53
(UTC-08:00)

STARLINK-1092 - Pass Details

Date: 30 January 2020
Orbit: 348 x 351 km, 53.0° (Epoch: 18 February)

Event Time Altitude Azimuth Distance (km) Brightness Sun altitude
Rises 17:45:26 0° 319° (NW) 2,165 7.0 -5.3°
Reaches altitude 10° 17:48:00 10° 343° (NNW) 1,320 5.6 -5.8°
Maximum altitude 17:49:54 16° 24° (NNE) 1,041 4.7 -6.1°
Drops below altitude 10° 17:51:48 10° 64° (ENE) 1,318 4.9 -6.5°
Enters shadow 17:52:09 - 69° (ENE) 1,416 5.0 -6.5°
